This demonstration page uses our WeatherBlox Daily Observations layout. Learn more.

Left ArrowRight Arrow

39.51506, -84.39828

Hourly Observations for May 4, 2020

Temp ( °F °C ) Dew Point ( °F °C ) Humidity (%) Winds ( mph kmh ) Pressure ( in mb ) Visibility ( mi km ) Precip ( " mm )
12:15 am 00:15 undefined 47 8.6 46 7.8 95 95 Calm 29.96 1015 N/A 0 0
12:35 am 00:35 undefined 49 9.3 45 7.2 87 87 Calm 29.96 1015 N/A 0 0
12:55 am 00:55 Clear 50 10.1 45 7.3 83 83 Calm 29.96 1015 N/A 0 0
1:15 am 01:15 undefined 47 8.2 44 6.6 90 90 Calm 29.97 1015 N/A 0 0
1:35 am 01:35 Clear 51 10.3 43 6.3 76 76 Calm 29.97 1015 N/A 0 0
1:55 am 01:55 Clear 48 9 43 6 82 82 Calm 29.97 1015 N/A 0 0
2:15 am 02:15 undefined 46 8 43 6 87 87 Calm 29.97 1015 N/A 0 0
2:35 am 02:35 undefined 45 7 43 6.2 95 95 Calm 29.98 1015 N/A 0 0
2:55 am 02:55 undefined 44 6.7 43 6 95 95 Calm 29.98 1015 N/A 0 0
3:15 am 03:15 undefined 45 7.1 44 6.7 97 97 Calm 29.97 1015 N/A 0 0
3:35 am 03:35 undefined 44 6.9 44 6.7 99 99 Calm 29.98 1015 N/A 0 0
3:55 am 03:55 undefined 41 5.2 41 4.8 97 97 Calm 29.98 1015 N/A 0 0
4:15 am 04:15 undefined 42 5.7 42 5.6 99 99 Calm 29.98 1015 N/A 0 0
4:35 am 04:35 undefined 45 7 45 7 100 100 Calm 29.99 1015 N/A 0 0
4:55 am 04:55 undefined 45 7.3 45 7.3 100 100 Calm 30 1016 N/A 0 0
5:15 am 05:15 undefined 44 6.7 44 6.7 100 100 Calm 30.01 1016 N/A 0 0
5:35 am 05:35 undefined 43 6 42 5.7 98 98 Calm 30.01 1016 N/A 0 0
5:55 am 05:55 undefined 41 5 39 4 93 93 Calm 30 1016 N/A 0 0
6:15 am 06:15 undefined 41 5 41 5 100 100 SSW 3 6 30.01 1016 N/A 0 0
6:35 am 06:35 undefined 43 6.1 43 5.9 99 99 SSW 3 6 30.02 1017 N/A 0 0
6:55 am 06:55 undefined 43 6.1 43 5.9 99 99 Calm 30.02 1017 N/A 0 0
7:15 am 07:15 undefined 44 6.4 43 6.1 98 98 Calm 30.04 1017 N/A 0 0
7:35 am 07:35 undefined 46 7.7 46 7.5 99 99 Calm 30.04 1017 N/A 0 0
7:55 am 07:55 undefined 49 9.2 47 8.5 95 95 Calm 30.04 1017 N/A 0 0
8:15 am 08:15 Sunny 52 11.3 46 7.7 79 79 N 7 11 30.05 1017 N/A 0 0
8:35 am 08:35 Sunny 53 11.8 45 7.2 74 74 Calm 30.04 1017 N/A 0 0
8:55 am 08:55 Sunny 55 12.5 46 7.8 73 73 N 8 13 30.05 1018 N/A 0 0
9:15 am 09:15 Sunny 56 13.1 46 7.6 70 70 NNE 7 11 30.05 1018 N/A 0 0
9:35 am 09:35 Sunny 57 14 45 7.2 64 64 N 7 11 30.06 1018 N/A 0 0
9:55 am 09:55 Sunny 58 14.5 44 6.8 60 60 NNE 12 19 30.06 1018 N/A 0 0
10:15 am 10:15 Sunny 58 14.6 44 6.4 58 58 N 8 13 30.07 1018 N/A 0 0
10:35 am 10:35 Sunny 59 14.9 44 6.8 59 59 NE 9 15 30.07 1018 N/A 0 0
10:55 am 10:55 Sunny 60 15.4 44 6.4 55 55 N 6 9 30.08 1018 N/A 0 0
11:15 am 11:15 Sunny 60 15.8 44 6.4 54 54 N 10 17 30.07 1018 N/A 0 0
11:35 am 11:35 Sunny 61 15.9 44 6.5 54 54 N 9 15 30.07 1018 N/A 0 0
11:55 am 11:55 Sunny 61 16 44 6.7 54 54 N 8 13 30.08 1019 N/A 0 0
12:15 pm 12:15 Sunny 61 16.2 46 7.6 57 57 NE 8 13 30.08 1019 N/A 0 0
12:35 pm 12:35 Sunny 61 15.9 45 7.2 57 57 NE 10 17 30.07 1018 N/A 0 0
12:55 pm 12:55 Sunny 61 16.2 45 7.2 55 55 NE 8 13 30.07 1018 N/A 0 0
1:15 pm 13:15 Sunny 62 16.9 45 7.4 54 54 N 7 11 30.07 1018 N/A 0 0
1:35 pm 13:35 Sunny 62 16.9 45 7.3 53 53 N 7 11 30.06 1018 N/A 0 0
1:55 pm 13:55 Sunny 63 17.2 45 7 51 51 NE 10 17 30.03 1017 N/A 0 0
2:15 pm 14:15 Sunny 64 17.8 46 8 53 53 NNE 9 15 30.03 1017 N/A 0 0
2:35 pm 14:35 Sunny 64 17.5 44 6.4 48 48 NE 9 15 30.03 1017 N/A 0 0
2:55 pm 14:55 Sunny 64 17.6 45 7.3 51 51 NNE 10 17 30.03 1017 N/A 0 0
3:15 pm 15:15 Sunny 64 17.7 44 6.9 49 49 ENE 8 13 30.02 1017 N/A 0 0
3:35 pm 15:35 Sunny 64 17.7 44 6.4 48 48 Calm 30.02 1017 N/A 0 0
3:55 pm 15:55 Sunny 65 18.5 43 6.1 44 44 NNE 6 9 30.02 1017 N/A 0 0
4:15 pm 16:15 Sunny 65 18.2 42 5.4 43 43 ENE 7 11 30.03 1017 N/A 0 0
4:35 pm 16:35 Sunny 65 18.4 44 6.4 46 46 NNE 6 9 30.03 1017 N/A 0 0
4:55 pm 16:55 Sunny 65 18.1 42 5.7 44 44 NE 5 7 30.04 1017 N/A 0 0
5:15 pm 17:15 Sunny 65 18.2 41 5.1 42 42 NE 3 6 30.04 1017 N/A 0 0
5:35 pm 17:35 Sunny 64 18 42 5.4 44 44 N 7 11 30.04 1017 N/A 0 0
5:55 pm 17:55 Sunny 64 17.8 41 5.2 44 44 N 5 7 30.03 1017 N/A 0 0
6:15 pm 18:15 Sunny 64 17.7 42 5.3 44 44 N 6 9 30.03 1017 N/A 0 0
6:35 pm 18:35 Sunny 63 17.4 43 5.9 47 47 NNE 5 7 30.03 1017 N/A 0 0
6:55 pm 18:55 Sunny 63 17.2 42 5.8 47 47 N 3 6 30.03 1017 N/A 0 0
7:15 pm 19:15 Sunny 62 16.8 42 5.7 48 48 N 5 7 30.04 1017 N/A 0 0
7:35 pm 19:35 Sunny 62 16.7 43 6.1 50 50 N 3 6 30.04 1017 N/A 0 0
7:55 pm 19:55 Sunny 61 16.1 43 6.3 52 52 NNE 5 7 30.03 1017 N/A 0 0
8:15 pm 20:15 Sunny 60 15.7 45 7.3 58 58 Calm 30.02 1017 N/A 0 0
8:35 pm 20:35 Clear 60 15.4 45 7.1 58 58 Calm 30.03 1017 N/A 0 0
8:55 pm 20:55 Clear 60 15.3 44 6.8 57 57 ENE 6 9 30.01 1016 N/A 0 0
9:15 pm 21:15 Partly Cloudy 59 15.1 44 6.6 57 57 ENE 6 9 30.01 1016 N/A 0 0
9:35 pm 21:35 Cloudy 59 14.8 44 6.7 59 59 ENE 6 9 29.99 1015 N/A 0 0
9:55 pm 21:55 Clear 59 15 42 5.4 53 53 E 10 17 29.97 1015 N/A 0 0
10:15 pm 22:15 Clear 59 15 42 5.3 53 53 E 15 24 29.96 1014 N/A 0 0
10:35 pm 22:35 Clear 58 14.6 42 5.7 55 55 ENE 12 19 29.98 1015 N/A 0 0
10:55 pm 22:55 Clear 58 14.5 42 5.6 55 55 ENE 12 19 29.98 1015 N/A 0 0
11:15 pm 23:15 Clear 58 14.5 42 5.6 55 55 NE 10 17 29.98 1015 N/A 0 0
11:35 pm 23:35 Clear 58 14.2 42 5.8 57 57 ENE 13 20 29.96 1015 N/A 0 0
11:55 pm 23:55 Clear 57 14 42 5.6 57 57 NE 13 20 29.98 1015 N/A 0 0

Powered by AerisWeather